ChubuSat-3 (41339 NORAD) Tracking and Keplerian Element Data

This shows tracking and keplerian element data for the satellite.

Feedback or suggestion? Click here.




ElementValue
Catalog41339
NameChubuSat-3
Epoch Orbit47522
Epoch Day286.53099365
Epoch Year2024
RAAN353.7116
Inclination31.0086
Eccentricity0.0010053
Argument of Perigee339.2772
Mean Anonmoly20.7458
Mean Motion15.09912972
Decay Rate0.00010852
L11 41339U 16012C 24286.53099365 .00010852 00000-0 64653-3 0 9995
L22 41339 31.0086 353.7116 0010053 339.2772 20.7458 15.09912972475229



Live tracking and technical data element details for ChubuSat-3 (NORAD 41339). ChubuSat-3 can be tracked NOW for your location showing map with azimuth and elevation plus other details from your city location.







IsCatalogInMostPopularTable: catalog: 41339, numindb: 519
Update: records affected: 1



GetName: 41339 ChubuSat-3

Hit Count: updated at: Thu, 23 Jan 2025 17:29:32 GMT